Vorticity
nan nan nan nan nan nan nan nan nan nan nan nan nan nan nan nan nan nan nan nan nan nan
nan 17 21 14 7 8 8 10 16 16 12 7 9 11 13 11 10 9 9 10 8 nan
nan 10 13 19 16 10 6 4 8 10 13 15 13 12 10 8 11 11 9 10 10 nan
nan 10 11 13 13 13 14 11 6 5 6 8 9 11 11 9 10 9 9 9 11 nan
nan 8 9 8 11 12 13 16 15 10 8 9 11 12 10 9 9 9 8 9 10 nan
nan 8 10 10 7 8 8 9 11 10 19 19 9 11 12 8 7 10 9 8 10 nan
nan 8 7 9 10 10 8 8 9 10 9 13 18 17 11 10 9 9 11 10 9 nan
nan 10 9 9 9 9 9 10 9 8 8 8 10 11 17 19 14 11 11 12 11 nan
nan 11 10 9 9 10 11 10 9 9 8 9 8 5 12 15 13 14 14 11 11 nan
nan 12 11 12 12 11 10 11 13 11 9 8 7 7 11 13 13 11 8 8 10 nan
nan 11 10 11 11 11 11 12 14 13 14 13 5 6 13 16 16 12 12 14 15 nan
nan 12 12 12 11 11 12 15 14 14 16 12 1 6 13 21 21 16 15 13 13 nan
nan 13 13 13 14 15 16 15 11 11 8 9 6 3 11 24 23 13 12 11 3 nan
nan nan nan nan nan nan nan nan nan nan nan nan nan nan nan nan nan nan nan nan nan nan
CAPE
193 355 262 287 494 512 393 645 456 321 713 492 468 175 85 107 85 91 40 6 0 0
2 1 161 349 285 368 159 205 394 294 304 307 139 217 287 359 326 266 176 60 5 0
9 0 2 3 128 124 179 36 45 12 43 85 55 46 18 33 256 364 402 176 139 52
0 0 0 1 1 36 175 212 62 6 13 12 66 20 15 26 64 126 309 386 266 120
0 0 0 0 0 0 0 0 51 36 9 1 47 114 84 15 63 70 162 267 335 231
0 0 0 0 0 0 0 0 0 0 5 64 182 176 86 114 119 111 108 133 132 210
1 0 0 0 0 0 0 0 0 0 0 0 114 199 159 146 96 78 168 243 358 380
3 0 0 0 0 0 0 0 0 0 1 0 0 3 41 217 366 411 280 252 252 211
4 3 1 0 0 0 0 0 0 0 0 2 0 0 1 0 0 61 234 196 241 258
9 5 7 4 3 3 3 5 4 1 0 0 0 0 0 0 0 0 4 15 87 77
3 5 4 7 6 7 7 5 6 5 5 4 0 0 0 0 0 2 6 13 21 31
10 6 9 13 10 7 4 1 6 6 4 5 1 0 0 0 8 10 2 1 1 0
8 6 10 10 10 7 8 7 4 4 5 0 4 0 0 0 0 5 3 4 1 0
8 6 9 9 7 7 7 5 4 4 4 4 0 1 0 0 0 0 3 4 2 1